timestamp,surface_pressure_avg,surface_temp_avg,battery_voltage,lat,long
2018-12-05 00:00:00+00:00,339.0929,3.6,12.81,47.84626,-54.09684
2018-12-05 00:10:00+00:00,324.1047,3.7,12.73,47.84626,-54.09684
2018-12-05 00:20:00+00:00,312.353,3.8,12.81,47.84626,-54.09684
2018-12-05 00:30:00+00:00,306.6714,3.87,12.81,47.84626,-54.09684
2018-12-05 00:40:00+00:00,298.738,3.9,12.89,47.84626,-54.09684
2018-12-05 00:50:00+00:00,286.7614,3.8,12.89,47.84626,-54.09684
2018-12-05 01:00:00+00:00,278.0197,3.8,12.81,47.84626,-54.09684
2018-12-05 01:10:00+00:00,274.4664,3.78,12.73,47.84626,-54.09684
2018-12-05 01:20:00+00:00,264.4881,3.8,12.81,47.84626,-54.09684
2018-12-05 01:30:00+00:00,255.7481,3.8,12.81,47.84626,-54.09684
2018-12-05 01:40:00+00:00,251.7848,3.82,12.89,47.84626,-54.09684
2018-12-05 01:50:00+00:00,246.9731,3.8,12.89,47.84626,-54.09684
2018-12-05 02:00:00+00:00,238.9247,3.8,12.81,47.84626,-54.09684
2018-12-05 02:10:00+00:00,235.8714,3.75,12.73,47.84626,-54.09684
2018-12-05 02:20:00+00:00,234.7481,3.7,12.81,47.84626,-54.09684
2018-12-05 02:30:00+00:00,230.2298,3.7,12.81,47.84626,-54.09684
2018-12-05 02:40:00+00:00,226.1331,3.7,12.81,47.84626,-54.09684
2018-12-05 02:50:00+00:00,224.2514,3.74,12.89,47.84626,-54.09684
2018-12-05 03:00:00+00:00,224.4348,3.8,12.81,47.84626,-54.09684
2018-12-05 03:10:00+00:00,222.4798,3.8,12.73,47.84626,-54.09684
2018-12-05 03:20:00+00:00,221.3248,3.8,12.81,47.84626,-54.09684
2018-12-05 03:30:00+00:00,223.0798,3.8,12.81,47.84626,-54.09684
2018-12-05 03:40:00+00:00,224.1048,3.8,12.81,47.84626,-54.09684
2018-12-05 03:50:00+00:00,220.0065,3.8,12.81,47.84626,-54.09684
2018-12-05 04:00:00+00:00,218.2531,3.8,12.81,47.84626,-54.09684
2018-12-05 04:10:00+00:00,224.2931,3.82,12.73,47.84626,-54.09684
2018-12-05 04:20:00+00:00,226.5265,3.89,12.81,47.84626,-54.09684
2018-12-05 04:30:00+00:00,222.0298,3.9,12.81,47.84626,-54.09684
2018-12-05 04:40:00+00:00,224.1165,3.9,12.81,47.84626,-54.09684
2018-12-05 04:50:00+00:00,232.6115,3.9,12.81,47.84626,-54.09684
2018-12-05 05:00:00+00:00,233.3264,3.9,12.73,47.84626,-54.09684
2018-12-05 05:10:00+00:00,234.5381,3.9,12.73,47.84626,-54.09684
2018-12-05 05:20:00+00:00,242.1231,3.9,12.81,47.84626,-54.09684
2018-12-05 05:30:00+00:00,250.0764,3.9,12.81,47.84626,-54.09684
2018-12-05 05:40:00+00:00,253.2114,3.94,12.81,47.84626,-54.09684
2018-12-05 05:50:00+00:00,255.1414,4.0,12.81,47.84626,-54.09684
2018-12-05 06:00:00+00:00,261.6414,4.01,12.73,47.84626,-54.09684
2018-12-05 06:10:00+00:00,270.8064,4.07,12.73,47.84626,-54.09684
2018-12-05 06:20:00+00:00,278.1614,4.0,12.81,47.84626,-54.09684
2018-12-05 06:30:00+00:00,283.743,4.0,12.81,47.84626,-54.09684
2018-12-05 06:40:00+00:00,288.3264,4.01,12.81,47.84626,-54.09684
2018-12-05 06:50:00+00:00,291.2347,4.06,12.81,47.84626,-54.09684
2018-12-05 07:00:00+00:00,296.8181,4.06,12.73,47.84626,-54.09684
2018-12-05 07:10:00+00:00,305.0064,4.05,12.73,47.84626,-54.09684
2018-12-05 07:20:00+00:00,311.603,4.07,12.81,47.84626,-54.09684
2018-12-05 07:30:00+00:00,311.793,4.09,12.81,47.84626,-54.09684
2018-12-05 07:40:00+00:00,319.218,4.08,12.81,47.84626,-54.09684
2018-12-05 07:50:00+00:00,330.088,4.04,12.81,47.84626,-54.09684
2018-12-05 08:00:00+00:00,339.2963,4.0,12.73,47.84626,-54.09684
2018-12-05 08:10:00+00:00,344.9462,4.0,12.65,47.84626,-54.09684
2018-12-05 08:20:00+00:00,356.9246,4.0,12.81,47.84626,-54.09684
2018-12-05 08:30:00+00:00,366.8796,4.0,12.81,47.84626,-54.09684
2018-12-05 08:40:00+00:00,367.6846,4.0,12.81,47.84626,-54.09684
2018-12-05 08:50:00+00:00,368.5413,4.0,12.81,47.84626,-54.09684
2018-12-05 09:00:00+00:00,378.2579,4.03,12.73,47.84626,-54.09684
2018-12-05 09:10:00+00:00,382.9962,4.1,12.65,47.84626,-54.09684
2018-12-05 09:20:00+00:00,376.7913,4.1,12.73,47.84626,-54.09684
2018-12-05 09:30:00+00:00,378.0946,4.1,12.73,47.84626,-54.09684
2018-12-05 09:40:00+00:00,390.2445,4.1,12.81,47.84626,-54.09684
2018-12-05 09:50:00+00:00,392.418,4.13,12.81,47.84626,-54.09684
2018-12-05 10:00:00+00:00,386.2662,4.1,12.73,47.84626,-54.09684
2018-12-05 10:10:00+00:00,387.2263,4.13,12.65,47.84626,-54.09684
2018-12-05 10:20:00+00:00,390.1346,4.18,12.73,47.84626,-54.09684
2018-12-05 10:30:00+00:00,386.883,4.2,12.73,47.84626,-54.09684
2018-12-05 10:40:00+00:00,383.7645,4.19,12.81,47.84626,-54.09684
2018-12-05 10:50:00+00:00,383.2196,4.2,12.81,47.84626,-54.09684
2018-12-05 11:00:00+00:00,384.5213,4.2,12.73,47.84626,-54.09684
2018-12-05 11:10:00+00:00,381.6796,4.2,12.65,47.84626,-54.09684
2018-12-05 11:20:00+00:00,379.2312,4.2,12.73,47.84626,-54.09684
2018-12-05 11:30:00+00:00,378.6913,4.2,12.73,47.84626,-54.09684
2018-12-05 11:40:00+00:00,374.1229,4.2,12.81,47.84626,-54.09684
2018-12-05 11:50:00+00:00,365.8697,4.2,12.81,47.84626,-54.09684
2018-12-05 12:00:00+00:00,358.2263,4.16,12.73,47.84626,-54.09684
2018-12-05 12:10:00+00:00,354.9413,4.2,12.73,47.84626,-54.09684
2018-12-05 12:20:00+00:00,347.1997,4.2,12.89,47.84626,-54.09684
2018-12-05 12:30:00+00:00,334.6464,4.2,12.97,47.84626,-54.09684
2018-12-05 12:40:00+00:00,325.6996,4.19,14.0,47.84626,-54.09684
2018-12-05 12:50:00+00:00,319.6763,4.16,14.88,47.84626,-54.09684
2018-12-05 13:00:00+00:00,310.0897,4.11,15.04,47.84626,-54.09684
2018-12-05 13:10:00+00:00,299.9764,4.1,13.92,47.84626,-54.09684
2018-12-05 13:20:00+00:00,293.5063,4.1,16.47,47.84626,-54.09684
2018-12-05 13:30:00+00:00,286.7547,4.1,16.55,47.84626,-54.09684
2018-12-05 13:40:00+00:00,276.7964,4.1,16.63,47.84626,-54.09684
2018-12-05 13:50:00+00:00,270.6914,3.97,16.63,47.84626,-54.09684
2018-12-05 14:00:00+00:00,268.7564,4.0,16.31,47.84626,-54.09684
2018-12-05 14:10:00+00:00,262.5897,4.07,16.15,47.84626,-54.09684
2018-12-05 14:20:00+00:00,250.9481,4.1,16.63,47.84626,-54.09684
2018-12-05 14:30:00+00:00,244.2014,4.09,16.47,47.84626,-54.09684
2018-12-05 14:40:00+00:00,242.3814,4.09,14.64,47.84626,-54.09684
2018-12-05 14:50:00+00:00,234.9114,4.1,14.64,47.84626,-54.09684
2018-12-05 15:00:00+00:00,224.2664,4.1,14.8,47.84626,-54.09684
2018-12-05 15:10:00+00:00,220.4698,4.1,16.23,47.84626,-54.09684
2018-12-05 15:20:00+00:00,219.5781,4.1,14.72,47.84626,-54.09684
2018-12-05 15:30:00+00:00,215.0448,4.1,15.11,47.84626,-54.09684
2018-12-05 15:40:00+00:00,210.5948,4.11,15.51,47.84626,-54.09684
2018-12-05 15:50:00+00:00,210.3381,4.11,14.64,47.84626,-54.09684
2018-12-05 16:00:00+00:00,209.4481,4.12,14.48,47.84626,-54.09684
2018-12-05 16:10:00+00:00,208.0364,4.13,14.64,47.84626,-54.09684
2018-12-05 16:20:00+00:00,208.3181,4.14,14.96,47.84626,-54.09684
2018-12-05 16:30:00+00:00,211.0015,4.15,14.56,47.84626,-54.09684
2018-12-05 16:40:00+00:00,213.0014,4.16,14.56,47.84626,-54.09684
2018-12-05 16:50:00+00:00,212.0915,4.17,14.64,47.84626,-54.09684
2018-12-05 17:00:00+00:00,211.7631,4.16,14.48,47.84626,-54.09684
2018-12-05 17:10:00+00:00,216.8048,4.14,14.24,47.84626,-54.09684
2018-12-05 17:20:00+00:00,221.9481,4.1,14.32,47.84626,-54.09684
2018-12-05 17:30:00+00:00,224.8748,4.1,14.32,47.84626,-54.09684
2018-12-05 17:40:00+00:00,224.8631,4.1,14.56,47.84626,-54.09684
2018-12-05 17:50:00+00:00,227.0731,4.1,14.48,47.84626,-54.09684
2018-12-05 18:00:00+00:00,230.6681,4.1,14.48,47.84626,-54.09684
2018-12-05 18:10:00+00:00,234.0231,4.1,14.32,47.84626,-54.09684
2018-12-05 18:20:00+00:00,236.4831,4.1,14.24,47.84626,-54.09684
2018-12-05 18:30:00+00:00,238.9081,4.1,14.24,47.84626,-54.09684
2018-12-05 18:40:00+00:00,244.3014,4.1,14.24,47.84626,-54.09684
2018-12-05 18:50:00+00:00,249.3547,4.1,14.16,47.84626,-54.09684
2018-12-05 19:00:00+00:00,252.9181,4.1,14.0,47.84626,-54.09684
2018-12-05 19:10:00+00:00,253.4131,4.1,13.84,47.84626,-54.09684
2018-12-05 19:20:00+00:00,257.3031,4.06,13.76,47.84626,-54.09684
2018-12-05 19:30:00+00:00,262.5681,4.0,13.68,47.84626,-54.09684
2018-12-05 19:40:00+00:00,269.9114,4.0,13.68,47.84626,-54.09684
2018-12-05 19:50:00+00:00,276.3664,4.0,13.6,47.84626,-54.09684
2018-12-05 20:00:00+00:00,283.3597,3.9,13.44,47.84626,-54.09684
2018-12-05 20:10:00+00:00,287.5797,3.9,13.29,47.84626,-54.09684
2018-12-05 20:20:00+00:00,294.078,3.89,13.29,47.84626,-54.09684
2018-12-05 20:30:00+00:00,301.8246,3.8,13.29,47.84626,-54.09684
2018-12-05 20:40:00+00:00,308.8297,3.8,13.29,47.84626,-54.09684
2018-12-05 20:50:00+00:00,316.113,3.8,13.29,47.84626,-54.09684
2018-12-05 21:00:00+00:00,323.968,3.8,13.21,47.84626,-54.09684
2018-12-05 21:10:00+00:00,329.0797,3.8,13.05,47.84626,-54.09684
2018-12-05 21:20:00+00:00,335.6364,3.8,13.13,47.84626,-54.09684
2018-12-05 21:30:00+00:00,344.0196,3.8,13.13,47.84626,-54.09684
2018-12-05 21:40:00+00:00,348.7396,3.8,13.13,47.84626,-54.09684
2018-12-05 21:50:00+00:00,351.428,3.8,13.21,47.84626,-54.09684
2018-12-05 22:00:00+00:00,358.8046,3.8,13.05,47.84626,-54.09684
2018-12-05 22:10:00+00:00,362.8129,3.8,12.97,47.84626,-54.09684
2018-12-05 22:20:00+00:00,362.248,3.8,13.05,47.84626,-54.09684
2018-12-05 22:30:00+00:00,364.7246,3.8,13.05,47.84626,-54.09684
2018-12-05 22:40:00+00:00,369.7297,3.79,13.13,47.84626,-54.09684
2018-12-05 22:50:00+00:00,370.8196,3.72,13.13,47.84626,-54.09684
2018-12-05 23:00:00+00:00,369.7147,3.78,13.05,47.84626,-54.09684
2018-12-05 23:10:00+00:00,369.3563,3.79,12.97,47.84626,-54.09684
2018-12-05 23:20:00+00:00,367.858,3.8,13.05,47.84626,-54.09684
2018-12-05 23:30:00+00:00,364.6879,3.8,13.05,47.84626,-54.09684
2018-12-05 23:40:00+00:00,360.8129,3.8,13.05,47.84626,-54.09684
2018-12-05 23:50:00+00:00,356.443,3.8,13.05,47.84626,-54.09684
